Regional Weather Roundup
Issued by NWS

Home | Current Version | Previous Version | Text Only | Print | Product List | Glossary On
Versions: 1 2 3 4 5 6 7 8 9 10 11 12 13 14 15 16 17 18 19 20 21 22 23 24 25 26 27
000
ASUS45 KBOI 171910
RWRID

IDAHO REGIONAL WEATHER ROUNDUP
NATIONAL WEATHER SERVICE BOISE ID
1200 PM MST TUE JAN 17 2017

NOTE: "FAIR" INDICATES FEW OR NO CLOUDS BELOW 12000 FEET
WITH NO SIGNIFICANT WEATHER AND/OR OBSTRUCTIONS TO VISIBILITY

IDZ012-014-172000-
SOUTHWEST IDAHO


CITY           SKY/WX    TMP DP  RH WIND       PRES   REMARKS
BOISE          SUNNY     11   4  73 CALM      30.36S HAZE
CALDWELL       SUNNY     20   5  52 CALM      30.43F HAZE
MOUNTAIN HOME  SUNNY     10  10  99 W6        30.32F WCI   0
$$

IDZ016-017-172000-
SOUTHCENTRAL IDAHO


CITY           SKY/WX    TMP DP  RH WIND       PRES   REMARKS
BURLEY         SUNNY     16   6  65 NE12      30.24F WCI   3
JEROME         SUNNY     14   7  73 NE20      30.23F WCI  -3
TWIN FALLS     SUNNY     19  12  74 E12       30.23F WCI   7
$$

IDZ019>023-172000-
SOUTHEAST IDAHO


CITY           SKY/WX    TMP DP  RH WIND       PRES   REMARKS
IDAHO FALLS    CLOUDY     4  -1  80 N7        30.29F WCI  -8
POCATELLO      CLOUDY    11   3  70 N6        30.29F WCI   1
REXBURG        CLOUDY     7  -2  66 NE5       30.28F WCI  -2
$$

IDZ006-010-011-018-031-032-172000-
CENTRAL IDAHO MOUNTAINS


CITY           SKY/WX    TMP DP  RH WIND       PRES   REMARKS
MCCALL         SUNNY     10   6  84 S3        30.15F
HAILEY         MOSUNNY   18   9  68 NW6       30.22F WCI   9
STANLEY          N/A      4  -5  66 CALM      30.18F
SALMON         CLOUDY    -8 -17  65 CALM      30.37F
CHALLIS        SUNNY     -8 -12  83 CALM      30.25F
$$

IDZ002-004-006-007-026-172000-
NORTHERN IDAHO


CITY           SKY/WX    TMP DP  RH WIND       PRES   REMARKS
LEWISTON       PTSUNNY   32  20  61 SE22G31   30.08F WCI  19
LOWELL           N/A     23  17  78 NW3       30.21S
COEUR D`ALENE  FLURRIES  24  21  88 N5        30.04S WCI  18
MULLAN PASS    CLOUDY    29  18  63 S12       29.93F WCI  19
$$




USA.gov is the U.S. government's official web portal to all federal, state and local government web resources and services.